Weather History for KOAJ - November, 2012

Change the Weather History Date:

Sunday, November 18, 2012

  Actual Average Record
Temperature  
Mean Temperature 54 °F -  
Max Temperature 59 °F 61 °F 77 °F (2013)
Min Temperature 50 °F 39 °F 23 °F (1997)
Degree Days  
Heating Degree Days 10    
Growing Degree Days 4 (Base 50)    
Moisture  
Dew Point 49 °F    
Average Humidity 85    
Maximum Humidity 94    
Minimum Humidity 72    
Precipitation  
Precipitation 0.43 in - - ()
Sea Level Pressure  
Sea Level Pressure 30.29 in    
Wind  
Wind Speed 15 mph (North)    
Max Wind Speed 21 mph    
Max Gust Speed 28 mph    
Visibility 9 miles    
Events      
Averages and records for this station are not official NWS values.
T = Trace of Precipitation, MM = Missing Value Source: NWS Daily Summary

Daily Weather History Graph

Daily Weather History Graph

Search for Another Location

Airport or City:

Trip Planner

Search our weather history database for the weather conditions in past years. The results will help you decide how hot, cold, wet, or windy it might be!

Date:

Astronomy

Nov. 18, 2012 Rise Set
Actual Time 6:47 AM EST 5:03 PM EST
Civil Twilight 6:20 AM EST 5:30 PM EST
Nautical Twilight 5:50 AM EST 6:00 PM EST
Astronomical Twilight 5:20 AM EST 6:31 PM EST
Moon 11:15 AM EST (11/18) 10:17 PM EST (11/18)
Length of Visible Light 11h 09m
Length of Day
10h 15m
Waxing Crescent, 30% of the Moon is Illuminated
Nov 18
Waxing Crescent
Nov 20
First Quarter
Nov 28
Full
Dec 6
Last Quarter
Dec 13
New

Hourly Weather History & Observations

Time (EST) Temp. Dew Point Humidity Pressure Visibility Wind Dir Wind Speed Gust Speed Precip Events Conditions
12:15 AM 50.0 °F 44.6 °F 82% 30.37 in 10.0 mi North 13.8 mph 18.4 mph N/A   Mostly Cloudy
12:35 AM 50.0 °F 44.6 °F 82% 30.35 in 10.0 mi North 13.8 mph 20.7 mph N/A   Mostly Cloudy
12:55 AM 50.0 °F 44.6 °F 82% 30.35 in 10.0 mi North 12.7 mph 19.6 mph N/A   Mostly Cloudy
1:15 AM 50.0 °F 44.6 °F 82% 30.34 in 10.0 mi North 12.7 mph 23.0 mph N/A   Mostly Cloudy
1:35 AM 50.0 °F 44.6 °F 82% 30.33 in 10.0 mi North 13.8 mph 20.7 mph N/A   Mostly Cloudy
1:55 AM 50.0 °F 44.6 °F 82% 30.33 in 10.0 mi North 13.8 mph 21.9 mph N/A   Scattered Clouds
2:15 AM 50.0 °F 44.6 °F 82% 30.33 in 10.0 mi North 12.7 mph 23.0 mph N/A   Partly Cloudy
2:55 AM 50.0 °F 44.6 °F 82% 30.33 in 10.0 mi North 15.0 mph - N/A   Partly Cloudy
3:15 AM 50.0 °F 46.4 °F 87% 30.32 in 10.0 mi North 13.8 mph - N/A   Partly Cloudy
3:35 AM 50.0 °F 46.4 °F 87% 30.32 in 10.0 mi North 15.0 mph 21.9 mph N/A   Partly Cloudy
3:55 AM 50.0 °F 46.4 °F 87% 30.31 in 10.0 mi North 17.3 mph 25.3 mph N/A   Mostly Cloudy
4:15 AM 50.0 °F 46.4 °F 87% 30.31 in 10.0 mi North 13.8 mph 23.0 mph N/A   Mostly Cloudy
4:35 AM 51.8 °F 46.4 °F 82% 30.31 in 10.0 mi North 15.0 mph 21.9 mph N/A   Mostly Cloudy
4:55 AM 51.8 °F 46.4 °F 82% 30.31 in 10.0 mi North 18.4 mph 23.0 mph N/A   Overcast
5:15 AM 51.8 °F 46.4 °F 82% 30.31 in 10.0 mi North 15.0 mph 19.6 mph N/A   Overcast
5:35 AM 51.8 °F 46.4 °F 82% 30.31 in 10.0 mi North 13.8 mph 21.9 mph N/A   Overcast
5:55 AM 51.8 °F 46.4 °F 82% 30.31 in 10.0 mi North 15.0 mph 21.9 mph N/A   Overcast
6:15 AM 51.8 °F 46.4 °F 82% 30.32 in 10.0 mi North 13.8 mph 20.7 mph N/A   Overcast
6:35 AM 51.8 °F 48.2 °F 88% 30.31 in 10.0 mi North 18.4 mph 23.0 mph N/A   Overcast
6:55 AM 51.8 °F 48.2 °F 88% 30.32 in 10.0 mi North 19.6 mph 25.3 mph N/A   Mostly Cloudy
7:15 AM 53.6 °F 48.2 °F 82% 30.33 in 10.0 mi North 16.1 mph - N/A   Overcast
7:35 AM 53.6 °F 48.2 °F 82% 30.33 in 10.0 mi North 13.8 mph 23.0 mph N/A   Overcast
7:55 AM 53.6 °F 48.2 °F 82% 30.33 in 10.0 mi North 16.1 mph 23.0 mph N/A   Overcast
8:15 AM 53.6 °F 48.2 °F 82% 30.33 in 10.0 mi NNE 15.0 mph 21.9 mph N/A   Overcast
8:35 AM 53.6 °F 48.2 °F 82% 30.32 in 10.0 mi North 15.0 mph 20.7 mph N/A   Overcast
8:55 AM 55.4 °F 48.2 °F 77% 30.32 in 10.0 mi North 16.1 mph 23.0 mph N/A   Overcast
9:15 AM 55.4 °F 48.2 °F 77% 30.32 in 10.0 mi North 15.0 mph 21.9 mph N/A   Overcast
9:35 AM 55.4 °F 48.2 °F 77% 30.32 in 10.0 mi North 18.4 mph 23.0 mph N/A   Overcast
9:55 AM 57.2 °F 48.2 °F 72% 30.32 in 10.0 mi NNE 17.3 mph 23.0 mph N/A   Overcast
10:15 AM 57.2 °F 48.2 °F 72% 30.32 in 10.0 mi NNE 16.1 mph 24.2 mph N/A   Overcast
10:35 AM 57.2 °F 50.0 °F 77% 30.32 in 10.0 mi NNE 19.6 mph 27.6 mph N/A   Overcast
10:55 AM 57.2 °F 50.0 °F 77% 30.31 in 10.0 mi NNE 17.3 mph 25.3 mph N/A   Overcast
11:15 AM 57.2 °F 50.0 °F 77% 30.31 in 10.0 mi North 17.3 mph 25.3 mph N/A   Overcast
11:35 AM 59.0 °F 50.0 °F 72% 30.29 in 10.0 mi North 15.0 mph - N/A   Overcast
11:55 AM 57.2 °F 50.0 °F 77% 30.29 in 10.0 mi NNE 17.3 mph 25.3 mph N/A   Overcast
12:15 PM 59.0 °F 50.0 °F 72% 30.29 in 10.0 mi NNE 20.7 mph 26.5 mph N/A   Overcast
12:35 PM 59.0 °F 50.0 °F 72% 30.28 in 10.0 mi North 13.8 mph 19.6 mph N/A   Overcast
12:55 PM 57.2 °F 51.8 °F 82% 30.27 in 10.0 mi North 16.1 mph 24.2 mph N/A   Overcast
1:15 PM 57.2 °F 51.8 °F 82% 30.27 in 10.0 mi NNE 18.4 mph 23.0 mph N/A   Overcast
1:35 PM 57.2 °F 51.8 °F 82% 30.26 in 10.0 mi North 17.3 mph 23.0 mph N/A   Overcast
1:55 PM 57.2 °F 51.8 °F 82% 30.26 in 5.0 mi North 16.1 mph 25.3 mph 0.01 in   Overcast
2:15 PM 55.4 °F 51.8 °F 88% 30.26 in 5.0 mi North 18.4 mph 24.2 mph 0.02 in   Overcast
2:35 PM 55.4 °F 51.8 °F 88% 30.26 in 7.0 mi North 12.7 mph 19.6 mph 0.05 in   Overcast
2:55 PM 55.4 °F 51.8 °F 88% 30.26 in 8.0 mi North 15.0 mph 21.9 mph 0.12 in   Overcast
3:15 PM 55.4 °F 51.8 °F 88% 30.26 in 8.0 mi North 11.5 mph 19.6 mph 0.07 in   Overcast
3:35 PM 55.4 °F 51.8 °F 88% 30.26 in 5.0 mi North 13.8 mph 20.7 mph 0.13 in   Overcast
3:55 PM 55.4 °F 51.8 °F 88% 30.26 in 3.0 mi North 15.0 mph - 0.14 in   Overcast
4:15 PM 53.6 °F 51.8 °F 94% 30.26 in 3.0 mi North 13.8 mph 19.6 mph 0.03 in   Overcast
4:35 PM 53.6 °F 51.8 °F 94% 30.26 in 5.0 mi North 12.7 mph 21.9 mph 0.04 in   Overcast
4:55 PM 53.6 °F 51.8 °F 94% 30.26 in 10.0 mi North 13.8 mph 21.9 mph 0.04 in   Overcast
5:15 PM 53.6 °F 51.8 °F 94% 30.27 in 10.0 mi North 11.5 mph 19.6 mph N/A   Overcast
5:35 PM 53.6 °F 51.8 °F 94% 30.27 in 7.0 mi North 12.7 mph 17.3 mph N/A   Overcast
5:55 PM 53.6 °F 51.8 °F 94% 30.27 in 10.0 mi North 13.8 mph 20.7 mph 0.03 in   Overcast
6:15 PM 53.6 °F 51.8 °F 94% 30.27 in 7.0 mi North 16.1 mph 21.9 mph 0.01 in   Overcast
6:35 PM 53.6 °F 51.8 °F 94% 30.27 in 7.0 mi North 13.8 mph 18.4 mph 0.01 in   Overcast
6:55 PM 53.6 °F 51.8 °F 94% 30.27 in 10.0 mi North 16.1 mph 23.0 mph 0.01 in   Overcast
7:15 PM 53.6 °F 51.8 °F 94% 30.27 in 7.0 mi North 13.8 mph 19.6 mph N/A   Overcast
7:35 PM 53.6 °F 50.0 °F 88% 30.26 in 10.0 mi North 13.8 mph 21.9 mph 0.01 in   Overcast
7:55 PM 53.6 °F 50.0 °F 88% 30.27 in 10.0 mi North 13.8 mph 19.6 mph 0.01 in   Overcast
8:15 PM 53.6 °F 50.0 °F 88% 30.27 in 10.0 mi North 12.7 mph 19.6 mph N/A   Overcast
8:35 PM 53.6 °F 50.0 °F 88% 30.26 in 10.0 mi North 12.7 mph 20.7 mph 0.01 in   Overcast
8:55 PM 53.6 °F 50.0 °F 88% 30.26 in 10.0 mi North 13.8 mph 21.9 mph 0.02 in   Overcast
9:15 PM 53.6 °F 50.0 °F 88% 30.26 in 10.0 mi North 11.5 mph - N/A   Overcast
9:35 PM 53.6 °F 50.0 °F 88% 30.25 in 10.0 mi North 12.7 mph 19.6 mph 0.02 in   Overcast
9:55 PM 53.6 °F 50.0 °F 88% 30.25 in 10.0 mi North 15.0 mph 23.0 mph 0.04 in   Overcast
10:15 PM 53.6 °F 50.0 °F 88% 30.24 in 10.0 mi North 18.4 mph 24.2 mph 0.01 in   Overcast
10:35 PM 53.6 °F 50.0 °F 88% 30.24 in 10.0 mi North 16.1 mph 23.0 mph 0.01 in   Overcast
10:55 PM 53.6 °F 50.0 °F 88% 30.24 in 10.0 mi North 12.7 mph 23.0 mph 0.01 in   Overcast
11:15 PM 53.6 °F 50.0 °F 88% 30.23 in 10.0 mi North 13.8 mph 21.9 mph N/A   Overcast
11:35 PM 53.6 °F 50.0 °F 88% 30.23 in 10.0 mi North 18.4 mph 24.2 mph N/A   Overcast